sat.trackr.live / text

‹ back to catalog

QIANFAN-32

NORAD 61565 · 2024-185P

PAYLOAD ACTIVE UNKNOWN

§ Identity

Operator
Country
PRC
Launch date
2024-10-15
Launch site
TAISC
Launch vehicle
Mass (kg)
RCS (m²)

External: N2YO · Heavens-Above · Gunter

§ Orbital elements

Epoch: 2026-09-22T20:03:56.071296Z

Period
106.60 min
Inclination
88.9866°
Eccentricity
0.0008598
Mean motion
13.50806795 rev/d
Perigee alt
1,062.9 km
Apogee alt
1,075.7 km
Semi-major
7,447.4 km
B*
1.2677e-4
RAAN
51.7973°
Arg perigee
336.6564°
Mean anomaly
23.4195°
Rev number
10,639

§ Raw data

QIANFAN-321 61565U 24185P   26265.83606564  .00000094  00000+0  12677-3 0  99902 61565  88.9866  51.7973 0008598 336.6564  23.4195 13.50806795106392

JSON: /api/v1/satellites/61565 · /tle

For live sub-satellite position, see the globe view (requires WebGL).

§ Visibility from observer

Set your observer location to see the next 7 days of passes ≥ 10°. The values pass through the URL so the page stays shareable.

No JS? Fill the form by hand. The geolocation button needs JavaScript.